Weather History for KABI - February, 2013

Change the Weather History Date:

Sunday, February 24, 2013

  Actual Average Record
Temperature  
Mean Temperature 58 °F 51 °F  
Max Temperature 74 °F 63 °F 91 °F (1918)
Min Temperature 42 °F 39 °F 14 °F (1889)
Degree Days  
Heating Degree Days 7 15  
Month to date heating degree days 334 409  
Since 1 July heating degree days 1753 2078  
Cooling Degree Days 0 0  
Month to date cooling degree days 0 0  
Year to date cooling degree days 6 1  
Growing Degree Days 8 (Base 50)    
Moisture  
Dew Point 42 °F    
Average Humidity 52    
Maximum Humidity 72    
Minimum Humidity 31    
Precipitation  
Precipitation 0.00 in 0.04 in 1.77 in (1992)
Month to date precipitation 0.55 1.14  
Year to date precipitation 1.86 2.16  
Sea Level Pressure  
Sea Level Pressure 29.64 in    
Wind  
Wind Speed 21 mph (SSE)    
Max Wind Speed 30 mph    
Max Gust Speed 37 mph    
Visibility 10 miles    
Events      
T = Trace of Precipitation, MM = Missing Value Source: NWS Daily Summary

Daily Weather History Graph

Daily Weather History Graph

Search for Another Location

Airport or City:

Trip Planner

Search our weather history database for the weather conditions in past years. The results will help you decide how hot, cold, wet, or windy it might be!

Date:

Astronomy

Feb. 24, 2013 Rise Set
Actual Time 7:11 AM CST 6:32 PM CST
Civil Twilight 6:46 AM CST 6:57 PM CST
Nautical Twilight 6:18 AM CST 7:25 PM CST
Astronomical Twilight 5:49 AM CST 7:54 PM CST
Moon 5:45 PM CST (2/24) 6:08 AM CST (2/24)
Length of Visible Light 12h 10m
Length of Day
11h 20m
Waxing Gibbous, 99% of the Moon is Illuminated
Feb 24
Waxing Gibbous
Feb 25
Full
Mar 4
Last Quarter
Mar 11
New
Mar 19
First Quarter

Hourly Weather History & Observations

Time (CST) Temp. Windchill Dew Point Humidity Pressure Visibility Wind Dir Wind Speed Gust Speed Precip Events Conditions
12:52 AM 46.9 °F - 28.9 °F 50% 29.79 in 10.0 mi SSE 20.7 mph 26.5 mph N/A   Clear
1:52 AM 45.0 °F 36.6 °F 30.0 °F 56% 29.78 in 10.0 mi SSE 21.9 mph 27.6 mph N/A   Clear
2:52 AM 44.1 °F 36.8 °F 32.0 °F 63% 29.77 in 10.0 mi SSE 16.1 mph 24.2 mph N/A   Clear
3:52 AM 43.0 °F 35.1 °F 33.1 °F 68% 29.76 in 10.0 mi SSE 17.3 mph - N/A   Clear
4:52 AM 44.1 °F 35.7 °F 34.0 °F 68% 29.75 in 10.0 mi SSE 20.7 mph 28.8 mph N/A   Clear
5:52 AM 44.1 °F 37.1 °F 35.1 °F 71% 29.76 in 10.0 mi SSE 15.0 mph 24.2 mph N/A   Clear
6:52 AM 44.1 °F 37.4 °F 35.1 °F 71% 29.75 in 10.0 mi SSE 13.8 mph - N/A   Clear
7:52 AM 45.0 °F 37.9 °F 36.0 °F 71% 29.76 in 10.0 mi South 16.1 mph 23.0 mph N/A   Clear
8:52 AM 51.1 °F - 39.0 °F 63% 29.75 in 10.0 mi South 21.9 mph 27.6 mph N/A   Clear
9:52 AM 54.0 °F - 39.0 °F 57% 29.75 in 10.0 mi South 26.5 mph 33.4 mph N/A   Clear
10:52 AM 59.0 °F - 39.9 °F 49% 29.72 in 10.0 mi South 24.2 mph 35.7 mph N/A   Clear
11:52 AM 62.1 °F - 42.1 °F 48% 29.71 in 10.0 mi South 26.5 mph 33.4 mph N/A   Clear
12:52 PM 66.9 °F - 43.0 °F 42% 29.68 in 10.0 mi South 20.7 mph 27.6 mph N/A   Clear
1:52 PM 71.1 °F - 44.1 °F 38% 29.62 in 10.0 mi South 15.0 mph 25.3 mph N/A   Clear
2:52 PM 72.0 °F - 43.0 °F 35% 29.59 in 10.0 mi South 19.6 mph 27.6 mph N/A   Clear
3:52 PM 73.0 °F - 41.0 °F 31% 29.55 in 10.0 mi South 16.1 mph 26.5 mph N/A   Clear
4:52 PM 73.0 °F - 43.0 °F 34% 29.52 in 10.0 mi SE 20.7 mph 28.8 mph N/A   Clear
5:52 PM 71.1 °F - 44.1 °F 38% 29.52 in 10.0 mi SE 18.4 mph - N/A   Partly Cloudy
6:52 PM 66.9 °F - 44.1 °F 44% 29.52 in 10.0 mi SE 23.0 mph - N/A   Partly Cloudy
7:52 PM 64.0 °F - 46.0 °F 52% 29.50 in 10.0 mi SE 25.3 mph - N/A   Clear
8:52 PM 63.0 °F - 46.9 °F 56% 29.49 in 10.0 mi SSE 21.9 mph 31.1 mph N/A   Clear
9:52 PM 61.0 °F - 48.9 °F 64% 29.49 in 10.0 mi SSE 27.6 mph 34.5 mph N/A   Clear
10:52 PM 60.1 °F - 51.1 °F 72% 29.49 in 10.0 mi South 23.0 mph 28.8 mph N/A   Partly Cloudy
11:21 PM 60.8 °F - 51.8 °F 72% 29.54 in 10.0 mi South 16.1 mph 27.6 mph N/A   Mostly Cloudy
11:47 PM 60.8 °F - 51.8 °F 72% 29.54 in 10.0 mi South 21.9 mph 28.8 mph N/A   Partly Cloudy
11:52 PM 60.1 °F - 52.0 °F 75% 29.49 in 10.0 mi South 23.0 mph 28.8 mph N/A   Partly Cloudy